User: anonymous   Login
Location: Brachbach
(49.1847°N, 9.7240°E)
Time: 10:29:54
(UTC+00:00)
Language:

Meteor 1-24 Rocket - Orbit

View from above orbital plane
View from above orbital plane
View from above satellite
View from above satellite

Ground track
Ground track

The orbit data is extracted from the following two-line orbital elements,

1 08800U 76032B   24203.52850550  .00000045  00000-0  17377-4 0  9993
2 08800  81.2480 215.9573 0094847  47.9544 312.9649 14.10415952483201
Epoch (UTC): 21 July 2024 12:41:02
Eccentricity: 0.0094847
inclination: 81.2480°
perigee height: 789 km
apogee height: 926 km
right ascension of ascending node: 215.9573°
argument of perigee: 47.9544°
revolutions per day: 14.10415952
mean anomaly at epoch: 312.9649°
orbit number at epoch: 48320

The dashed part of the orbit path shows where the satellite is in the earth's shadow,  

DLR